FW8999 Weather Reports


time (UTC)temp
F
wind
direction
speed
knots
gust
knots
rain 1hr
in
rain 24hr
in
rain mn
in
humidity
%
barometer
mb
20260507020549 54 340 0.9 1.7 0.07 1.02 1.02 98 1013.3
20260507015549 55 349 0.0 0.0 0.07 1.01 1.01 98 1013.2
20260507014549 55 9 0.0 0.0 0.00 1.00 1.00 98 1013.2
20260507013547 55 327 0.0 0.0 0.00 1.00 1.00 98 1013.2
20260507012542 56 344 0.0 0.0 0.00 1.00 1.00 98 1013.1
20260507011541 56 355 0.0 0.0 0.05 1.00 1.00 98 1013.2
20260507010538 57 355 0.0 0.0 0.00 0.99 0.99 98 1013.1
20260507005532 59 12 0.0 0.0 0.00 0.99 0.99 98 1012.9
20260507004531 59 12 0.0 0.0 0.00 0.99 0.99 98 1012.7
20260507003530 59 20 0.0 0.0 0.00 0.99 0.99 98 1012.8
20260507002528 59 22 0.0 0.0 0.00 0.99 0.99 98 1012.8
20260507001526 59 27 0.0 0.0 0.00 0.99 0.99 98 1012.7
20260507000526 59 44 0.0 0.0 0.00 0.99 0.99 98 1012.8
20260506235525 59 21 0.0 0.0 0.00 0.99 0.99 98 1012.6
20260506234524 59 281 0.0 0.0 0.07 0.99 0.99 98 1012.4
20260506233524 59 58 0.0 0.0 0.12 0.98 0.98 98 1012.4
20260506232523 59 20 0.0 0.0 0.05 0.96 0.96 98 1012.1
20260506231522 59 31 0.0 0.0 0.12 0.95 0.95 98 1012.1
20260506230521 59 22 0.0 0.0 0.12 0.93 0.93 97 1012.3
20260506225516 59 9 0.0 0.0 0.07 0.91 0.91 97 1012.4
20260506224515 59 349 0.0 0.0 0.05 0.90 0.90 97 1012.2
20260506223512 59 6 0.0 0.0 0.19 0.89 0.89 97 1012.4
20260506222511 59 234 0.0 0.0 0.12 0.86 0.86 97 1012.6
20260506221510 59 261 0.0 0.0 0.07 0.84 0.84 97 1012.4
20260506220508 60 260 0.0 0.0 0.12 0.83 0.83 97 1013.0
20260506215507 60 294 0.0 0.0 0.05 0.81 0.81 97 1012.9
20260506214505 60 357 0.0 0.0 0.12 0.80 0.80 97 1013.2
20260506213500 60 90 0.0 0.0 0.00 0.78 0.78 97 1013.2
20260506212459 60 10 0.0 0.0 0.19 0.78 0.78 97 1013.5
20260506211456 60 341 0.0 0.0 0.07 0.75 0.75 97 1013.3
20260506210456 60 357 0.0 0.0 0.05 0.74 0.74 97 1013.6
20260506205455 60 4 0.0 0.0 0.00 0.73 0.73 97 1013.5
20260506204455 60 10 0.0 0.0 0.00 0.73 0.73 97 1013.8
20260506203455 60 316 0.0 0.0 0.00 0.73 0.73 97 1013.7
20260506202455 60 321 0.0 0.0 0.00 0.73 0.73 97 1013.8
20260506201455 60 355 0.0 0.0 0.12 0.73 0.73 97 1013.5
20260506200454 60 216 0.0 0.0 0.07 0.71 0.71 97 1013.8
20260506195454 60 339 0.0 0.0 0.12 0.70 0.70 97 1013.9
20260506194448 60 253 0.0 0.0 0.05 0.68 0.68 97 1014.0
20260506193447 60 341 0.0 0.0 0.12 0.67 0.67 97 1014.1
20260506192447 60 34 0.0 0.0 0.07 0.65 0.65 97 1014.3
20260506191446 60 25 0.0 0.0 0.19 0.64 0.64 97 1014.3
20260506190445 60 8 0.0 0.0 0.12 0.62 0.62 97 1014.3
20260506185445 60 348 0.0 0.0 0.19 0.60 0.60 97 1014.4
20260506184445 60 357 0.0 0.0 0.05 0.57 0.57 97 1014.6
20260506183443 59 18 0.0 0.0 0.19 0.56 0.56 97 1014.6
20260506182438 59 30 0.0 0.0 0.12 0.53 0.53 97 1014.9
20260506181433 59 51 0.9 0.9 0.24 0.51 0.51 96 1015.0
20260506180431 59 33 0.0 0.0 0.35 0.47 0.47 96 1015.2
20260506175431 59 24 0.0 0.0 0.85 0.41 0.41 95 1015.3
20260506174426 59 355 0.0 0.0 1.09 0.27 0.27 95 1015.3
20260506173425 60 28 0.0 0.0 0.35 0.09 0.09 93 1015.2
20260506172425 61 17 0.0 0.0 0.12 0.03 0.03 90 1015.0
20260506171425 63 42 0.0 0.0 0.00 0.01 0.01 87 1014.9
20260506170425 63 42 0.0 0.0 0.00 0.01 0.01 82 1014.9
20260506165422 63 33 0.0 0.0 0.00 0.01 0.01 81 1015.3
20260506164420 63 315 0.0 0.0 0.00 0.01 0.01 81 1015.5
20260506163419 63 41 0.9 1.7 0.00 0.01 0.01 84 1015.7
20260506162418 63 34 0.0 0.0 0.07 0.01 0.01 83 1016.1
20260506161413 63 294 0.9 0.9 0.00 0.00 0.00 83 1016.5
20260506160413 63 37 0.0 0.0 0.00 0.00 0.00 83 1016.6
20260506155408 63 187 0.9 1.7 0.00 0.00 0.00 81 1017.0
20260506153530 63 242 0.0 0.0 0.00 0.00 0.00 77 1016.8
20260506152530 63 63 0.0 0.0 0.00 0.00 0.00 79 1016.9
20260506151526 64 237 1.7 1.7 0.00 0.00 0.00 78 1017.0
20260506150525 63 253 1.7 1.7 0.00 0.00 0.00 78 1017.0
20260506145525 63 276 0.9 0.9 0.00 0.00 0.00 77 1017.1
20260506144524 64 296 0.9 0.9 0.00 0.00 0.00 76 1017.1
20260506143520 64 358 0.0 0.0 0.00 0.00 0.00 77 1016.9
20260506142515 64 30 0.9 0.9 0.00 0.00 0.00 76 1017.0
20260506141511 64 238 0.9 0.9 0.00 0.00 0.00 77 1016.6
20260506140506 64 343 0.0 0.0 0.00 0.00 0.00 78 1016.8
20260506135506 64 250 0.9 0.9 0.00 0.00 0.00 77 1017.1
20260506134503 63 255 0.9 1.7 0.00 0.00 0.00 77 1017.3
20260506133503 63 356 0.0 0.0 0.00 0.00 0.00 78 1017.4
20260506132502 62 8 0.9 0.9 0.00 0.00 0.00 80 1017.4
20260506131457 62 225 0.9 0.9 0.00 0.00 0.00 80 1017.3
20260506130456 62 334 0.0 0.0 0.00 0.00 0.00 81 1017.2
20260506125452 62 215 1.7 1.7 0.00 0.00 0.00 80 1017.1
20260506124447 62 316 0.0 0.0 0.00 0.00 0.00 81 1017.4
20260506123442 61 296 0.0 0.0 0.00 0.00 0.00 81 1017.5
20260506122442 61 293 0.9 0.9 0.00 0.00 0.00 81 1017.4
20260506121437 61 301 0.0 0.0 0.00 0.00 0.00 86 1017.8
20260506120432 60 311 0.0 0.0 0.00 0.00 0.00 87 1017.9
20260506115427 59 311 0.0 0.0 0.00 0.00 0.00 90 1017.6
20260506114422 57 315 0.0 0.0 0.00 0.00 0.00 91 1017.6
20260506113418 57 336 0.0 0.0 0.00 0.00 0.00 93 1018.0
20260506112418 56 336 0.0 0.0 0.00 0.00 0.00 94 1017.8
20260506111413 56 352 0.0 0.0 0.00 0.00 0.00 95 1017.7
20260506110414 55 352 0.0 0.0 0.00 0.00 0.00 95 1018.0
20260506105412 55 352 0.0 0.0 0.00 0.00 0.00 95 1017.9
20260506104407 54 352 0.0 0.0 0.00 0.00 0.00 96 1017.7
20260506103402 54 353 0.0 0.0 0.00 0.00 0.00 95 1017.7
20260506102357 53 353 0.0 0.0 0.00 0.00 0.00 95 1017.7
20260506101356 53 354 0.0 0.0 0.00 0.00 0.00 95 1017.4
20260506100352 53 352 0.0 0.0 0.00 0.00 0.00 95 1017.6
20260506095347 53 354 0.0 0.0 0.00 0.00 0.00 95 1017.4
20260506094343 54 354 0.0 0.0 0.00 0.00 0.00 95 1017.4
20260506093343 54 354 0.0 0.0 0.00 0.00 0.00 95 1017.3
20260506092339 54 354 0.0 0.0 0.00 0.00 0.00 95 1017.3
20260506091339 54 354 0.0 0.0 0.00 0.00 0.00 95 1017.6
20260506090339 54 354 0.0 0.0 0.00 0.00 0.00 94 1017.4
20260506085338 55 338 0.0 0.0 0.00 0.00 0.00 94 1017.3
20260506084338 55 327 0.0 0.0 0.00 0.00 0.00 94 1017.3
20260506083337 55 308 0.0 0.0 0.00 0.00 0.00 94 1017.1
20260506082337 56 309 0.0 0.0 0.00 0.00 0.00 93 1017.5
20260506081337 56 343 0.0 0.0 0.00 0.00 0.00 93 1017.3
20260506080337 57 343 0.0 0.0 0.00 0.00 0.00 92 1017.2
20260506073327 58 328 0.0 0.0 0.00 0.00 0.00 91 1016.8
20260506072327 58 222 0.0 0.0 0.00 0.00 0.00 90 1016.7
20260506071323 58 8 0.0 0.0 0.00 0.00 0.00 90 1016.9
20260506070322 58 8 0.0 0.0 0.00 0.00 0.00 90 1016.8
20260506062306 59 350 0.0 0.0 0.00 0.00 0.00 88 1016.3
20260506061304 59 335 0.0 0.0 0.00 0.00 0.00 88 1016.4
20260506060300 60 18 0.0 0.0 0.00 0.00 0.00 86 1016.5
20260506051249 59 358 0.0 0.0 0.00 0.00 0.00 86 1016.6
20260506050244 59 289 0.0 0.0 0.00 0.00 0.00 87 1016.6
20260506044243 61 222 0.0 0.0 0.00 0.00 0.00 83 1016.6
20260506043238 62 9 0.0 0.0 0.00 0.00 0.00 80 1016.7
20260506042235 62 59 0.0 0.0 0.00 0.00 0.00 78 1016.7
20260506041230 62 38 0.0 0.0 0.00 0.00 0.00 79 1016.6
20260506040230 62 13 0.0 0.0 0.00 0.00 0.00 81 1016.6
20260506035229 61 301 0.0 0.0 0.00 0.01 0.01 84 1016.7
20260506034229 61 41 0.0 0.0 0.00 0.01 0.01 84 1016.9
20260506033230 61 40 0.0 0.0 0.00 0.01 0.01 84 1016.9
20260506032229 61 38 0.0 0.0 0.00 0.01 0.01 85 1017.1
20260506031229 62 38 0.0 0.0 0.00 0.01 0.01 81 1016.6
20260506030224 62 39 0.0 0.0 0.00 0.01 0.01 81 1016.4
20260506025223 63 40 0.0 0.0 0.00 0.01 0.01 77 1016.7
20260506024223 62 42 0.0 0.0 0.00 0.01 0.01 77 1016.6
20260506023222 62 331 0.0 0.0 0.00 0.01 0.01 79 1016.5
20260506022217 62 31 0.0 0.0 0.00 0.01 0.01 78 1016.3